TimeCST,TemperatureF,Dew PointF,Humidity,Sea Level PressureIn,VisibilityMPH,Wind Direction,Wind SpeedMPH,Gust SpeedMPH,PrecipitationIn,Events,Conditions,WindDirDegrees,DateUTC
1:53 AM,57.9,46.9,67,29.87,10.0,South,13.8,20.7,N/A,,Overcast,190,2013-03-05 07:53:00
2:53 AM,59.0,48.0,67,29.86,10.0,South,13.8,19.6,N/A,,Overcast,190,2013-03-05 08:53:00
3:43 AM,59.0,48.2,67,29.87,10.0,SSW,13.8,24.2,N/A,,Overcast,210,2013-03-05 09:43:00
3:53 AM,59.0,48.9,69,29.86,10.0,SSW,11.5,-,N/A,,Overcast,210,2013-03-05 09:53:00
4:53 AM,59.0,50.0,72,29.86,10.0,SSW,12.7,-,N/A,,Mostly Cloudy,200,2013-03-05 10:53:00
5:53 AM,59.0,50.0,72,29.86,10.0,SSW,11.5,19.6,N/A,,Overcast,210,2013-03-05 11:53:00
6:34 AM,59.0,51.8,77,29.86,10.0,SSW,15.0,20.7,N/A,,Overcast,210,2013-03-05 12:34:00
7:00 AM,59.0,51.8,77,29.84,10.0,SSW,12.7,-,N/A,,Mostly Cloudy,200,2013-03-05 13:00:00
7:26 AM,60.8,51.8,72,29.84,10.0,SSW,18.4,25.3,N/A,,Overcast,200,2013-03-05 13:26:00
7:53 AM,59.0,52.0,78,29.83,9.0,SSW,17.3,25.3,N/A,,Overcast,200,2013-03-05 13:53:00
8:16 AM,57.2,51.8,82,29.82,10.0,South,15.0,-,0.01,Thunderstorm,Overcast,190,2013-03-05 14:16:00
8:26 AM,57.2,51.8,82,29.83,10.0,SSW,15.0,21.9,0.01,Thunderstorm,Overcast,200,2013-03-05 14:26:00
8:53 AM,57.0,53.1,87,29.81,9.0,SSW,12.7,21.9,0.05,Rain-Thunderstorm,Light Rain,200,2013-03-05 14:53:00
9:09 AM,57.2,53.6,88,29.82,1.8,SSW,19.6,25.3,0.08,Rain-Thunderstorm,Heavy Thunderstorms and Rain,200,2013-03-05 15:09:00
9:23 AM,57.2,53.6,88,29.81,3.0,SSW,15.0,-,0.19,Rain-Thunderstorm,Heavy Thunderstorms and Rain,210,2013-03-05 15:23:00
9:44 AM,57.2,53.6,88,29.81,8.0,SSW,13.8,-,0.24,Rain,Light Rain,210,2013-03-05 15:44:00
9:53 AM,57.9,54.0,87,29.79,10.0,SSW,11.5,-,0.24,,Overcast,210,2013-03-05 15:53:00
10:00 AM,59.0,53.6,82,29.79,8.0,SSW,11.5,-,N/A,,Overcast,210,2013-03-05 16:00:00
10:08 AM,59.0,53.6,82,29.80,5.0,SSW,13.8,20.7,0.00,Rain,Light Rain,210,2013-03-05 16:08:00
10:18 AM,57.2,53.6,88,29.80,2.5,SSW,12.7,21.9,0.01,Rain,Light Rain,210,2013-03-05 16:18:00
10:28 AM,57.2,55.4,94,29.79,2.5,SSW,9.2,-,0.01,Rain,Light Rain,210,2013-03-05 16:28:00
10:35 AM,57.2,55.4,94,29.79,3.0,SSW,10.4,-,0.02,Rain,Light Rain,210,2013-03-05 16:35:00
10:53 AM,57.9,55.0,90,29.73,5.0,Calm,Calm,-,0.03,Rain,Light Rain,0,2013-03-05 16:53:00
10:58 AM,57.2,55.4,94,29.76,5.0,SW,9.2,-,0.00,Rain,Light Rain,220,2013-03-05 16:58:00
11:17 AM,57.2,55.4,94,29.76,7.0,SSW,10.4,-,0.00,Thunderstorm,Overcast,200,2013-03-05 17:17:00
11:26 AM,57.2,55.4,94,29.75,7.0,SSW,9.2,-,0.00,,Overcast,210,2013-03-05 17:26:00
11:42 AM,57.2,55.4,94,29.76,1.8,West,9.2,-,0.00,Rain-Thunderstorm,Heavy Rain,260,2013-03-05 17:42:00
11:53 AM,57.9,55.0,90,29.78,1.0,WNW,27.6,38.0,0.02,Rain-Thunderstorm,Heavy Rain,300,2013-03-05 17:53:00
11:58 AM,57.2,53.6,88,29.80,1.2,WNW,27.6,38.0,0.00,Rain,Heavy Rain,300,2013-03-05 17:58:00
12:03 PM,55.4,51.8,88,29.81,2.5,WNW,28.8,40.3,0.01,Rain-Thunderstorm,Rain,300,2013-03-05 18:03:00
12:07 PM,55.4,50.0,82,29.82,4.0,WNW,29.9,40.3,0.02,Rain-Thunderstorm,Heavy Rain,290,2013-03-05 18:07:00
12:20 PM,53.6,48.2,82,29.83,3.0,WNW,20.7,31.1,0.07,Rain-Thunderstorm,Heavy Rain,290,2013-03-05 18:20:00
12:27 PM,51.8,48.2,88,29.82,4.0,WNW,19.6,-,0.12,Rain,Heavy Rain,290,2013-03-05 18:27:00
12:53 PM,51.1,46.0,83,29.83,10.0,WNW,25.3,32.2,0.26,,Overcast,290,2013-03-05 18:53:00
1:53 PM,45.0,39.9,82,29.90,10.0,WNW,21.9,38.0,0.13,,Overcast,300,2013-03-05 19:53:00
2:53 PM,42.1,35.1,76,29.96,10.0,NW,18.4,31.1,N/A,,Overcast,310,2013-03-05 20:53:00
3:02 PM,42.8,35.6,76,29.97,10.0,NW,20.7,31.1,N/A,,Overcast,310,2013-03-05 21:02:00
3:53 PM,42.1,32.0,67,30.00,10.0,NW,19.6,25.3,N/A,,Overcast,310,2013-03-05 21:53:00
4:30 PM,42.8,33.8,70,30.02,10.0,NW,13.8,-,N/A,,Overcast,310,2013-03-05 22:30:00
4:53 PM,43.0,33.1,68,30.03,10.0,WNW,17.3,23.0,N/A,,Overcast,300,2013-03-05 22:53:00
5:53 PM,43.0,32.0,65,30.04,10.0,NW,16.1,20.7,N/A,,Overcast,310,2013-03-05 23:53:00
6:53 PM,41.0,30.9,67,30.05,10.0,WNW,8.1,-,N/A,,Mostly Cloudy,290,2013-03-06 00:53:00
7:53 PM,39.9,30.9,70,30.05,10.0,West,8.1,-,N/A,,Clear,280,2013-03-06 01:53:00
8:53 PM,39.0,30.0,70,30.06,10.0,WNW,9.2,-,N/A,,Clear,290,2013-03-06 02:53:00
9:53 PM,39.9,28.0,63,30.06,10.0,WNW,13.8,-,N/A,,Scattered Clouds,290,2013-03-06 03:53:00
10:53 PM,37.9,19.9,48,30.10,10.0,NNW,18.4,33.4,N/A,,Overcast,340,2013-03-06 04:53:00
11:53 PM,37.0,19.9,50,30.11,10.0,NW,11.5,20.7,N/A,,Clear,310,2013-03-06 05:53:00